Location: Congrier
(47.8099°N, 1.1170°W)
Time: 19:12:45
(UTC+00:00)

PAYLOAD B - Visible Passes

Search period start: 01 October 2023 00:00
Search period end: 11 October 2023 00:00
Orbit: 848 x 871 km, 99.1° (Epoch: 01 October)

Date Brightness Start Highest point End Pass type
(mag) Time Alt. Az. Time Alt. Az. Time Alt. Az.
01 Oct 4.3 19:10:14 10° SSE 19:15:48 79° WSW 19:21:23 10° NNW visible
01 Oct 7.0 20:55:16 10° WSW 20:57:32 12° W 20:59:48 10° WNW visible
02 Oct 4.2 19:01:02 10° SSE 19:06:36 88° ENE 19:12:11 10° NNW visible
02 Oct 6.9 20:45:05 10° WSW 20:48:11 15° W 20:51:18 10° NW visible
03 Oct 4.2 18:51:53 10° SSE 18:57:26 76° ENE 19:02:58 10° NNW visible
03 Oct 6.7 20:35:10 10° SW 20:38:52 18° W 20:42:35 10° NW visible
04 Oct 4.2 18:42:46 10° SSE 18:48:15 64° ENE 18:53:44 10° N visible
04 Oct 6.5 20:25:24 10° SW 20:29:33 21° W 20:33:43 10° NW visible
05 Oct 4.4 18:33:42 10° SE 18:39:06 55° ENE 18:44:30 10° N visible
05 Oct 6.2 20:15:45 10° SSW 20:20:15 25° W 20:24:47 10° NW visible
06 Oct 4.5 18:24:41 10° SE 18:29:57 46° ENE 18:35:13 10° N visible
06 Oct 6.0 20:06:10 10° SSW 20:10:58 30° W 20:15:47 10° NW visible
07 Oct 4.7 18:15:42 10° SE 18:20:48 40° ENE 18:25:55 10° N visible
07 Oct 5.7 19:56:40 10° SSW 20:01:42 35° W 20:06:45 10° NNW visible
08 Oct 4.9 18:06:45 10° SE 18:11:41 34° ENE 18:16:36 10° N visible
08 Oct 5.4 19:47:13 10° SSW 19:52:26 41° W 19:57:40 10° NNW visible
09 Oct 5.1 17:57:52 10° ESE 18:02:34 29° ENE 18:07:16 10° N visible
09 Oct 5.1 19:37:50 10° S 19:43:12 49° W 19:48:33 10° NNW visible
10 Oct 5.2 17:49:02 10° ESE 17:53:29 26° ENE 17:57:55 10° N visible
10 Oct 4.8 19:28:30 10° S 19:33:57 58° WSW 19:39:24 10° NNW visible
